Lid_Strength_Index
11 11 11 11 12 11 10 9 11 10 10 10 10 10 10 9 9 9 9 9 8 8 8 7 7 7 7 7 6 6 5 5 5 5 6 5 5 5 5 6 7 7 8 8
12 11 11 12 12 11 11 11 11 10 11 9 9 9 10 10 10 10 9 9 8 8 8 8 8 7 6 6 5 5 5 5 4 4 4 4 4 5 5 6 7 7 7 8
13 11 11 13 13 12 12 10 10 11 11 10 11 10 10 9 9 9 9 9 9 8 7 6 6 5 5 5 4 4 5 4 4 4 4 4 5 5 6 5 6 8 7 7
12 11 16 12 10 11 11 11 11 11 11 10 9 9 8 8 9 9 9 8 7 6 6 5 5 4 4 4 4 4 4 4 4 4 5 5 5 5 5 5 5 7 9 7
13 13 12 12 11 11 10 12 10 10 10 9 9 9 9 8 7 7 6 6 5 5 5 4 4 4 4 4 4 4 4 4 4 4 5 6 6 7 6 6 6 6 8 9
10 16 16 11 9 8 8 12 9 9 9 9 9 10 8 6 6 6 5 5 5 5 4 4 3 3 3 4 4 4 4 3 3 3 4 6 6 6 6 5 6 7 7 8
11 12 12 8 7 6 13 12 7 7 7 7 7 6 5 5 5 5 5 5 4 4 4 3 3 3 3 3 4 3 3 3 3 2 3 5 5 5 6 5 5 6 6 7
11 13 17 6 7 11 7 5 5 5 6 6 5 5 5 5 6 5 5 4 4 4 4 3 2 2 3 3 2 2 3 3 3 3 3 4 5 4 5 6 6 6 6 8
11 11 6 5 5 4 4 5 5 4 4 5 5 5 5 5 5 5 4 3 3 2 2 2 1 2 2 2 2 2 3 3 3 3 3 4 3 4 4 5 5 6 6 8
8 7 6 5 4 3 3 4 4 4 4 4 5 5 5 4 4 4 3 3 2 2 2 2 1 1 1 1 1 2 3 3 4 4 4 4 4 4 5 4 5 6 6 7
8 6 5 4 4 4 4 3 4 3 3 4 4 4 4 4 3 3 3 2 2 2 2 2 1 1 1 1 1 2 3 3 3 4 4 4 4 5 6 6 7 8 8 8
9 5 5 5 3 3 3 3 3 3 3 3 3 4 4 4 3 3 3 2 2 2 2 2 1 1 1 1 1 2 2 3 4 4 4 4 4 4 6 7 7 8 9 8
5 3 3 3 2 2 3 3 2 2 2 3 2 2 3 3 2 2 2 2 1 1 1 1 1 1 1 1 1 1 2 3 3 4 4 4 4 5 5 5 7 8 8 8
3 3 4 3 4 2 2 2 2 2 2 2 2 2 2 2 2 2 2 1 1 0 1 1 1 1 -0 0 1 1 1 6 3 3 4 4 4 4 5 5 6 6 7 8
3 2 3 2 2 2 2 2 3 3 2 2 1 2 1 2 2 2 1 1 1 1 1 1 1 1 0 -0 1 1 1 2 2 3 3 4 4 4 5 5 5 6 6 7
3 3 3 3 3 3 3 3 3 3 3 2 2 2 2 1 1 1 1 1 2 2 1 1 1 1 -1 -1 -0 1 1 4 4 2 3 3 4 4 5 5 5 6 6 7
4 5 4 4 4 3 3 2 2 2 2 2 2 1 1 2 1 1 1 0 1 1 1 0 0 0 -1 -1 -0 1 1 1 6 2 2 3 3 4 4 5 5 5 6 7
2 2 2 2 3 3 3 2 2 2 2 2 1 1 1 2 2 1 1 1 1 1 0 -0 -1 -1 -1 -1 -1 0 1 1 2 2 2 2 3 3 4 5 5 5 6 6
2 3 2 2 2 2 2 2 2 1 1 1 1 2 1 1 1 1 1 1 1 2 1 -0 1 0 -0 -0 0 0 2 2 2 2 2 4 3 3 4 4 5 5 6 6
2 2 2 2 1 2 1 1 1 1 1 1 1 1 2 1 1 1 1 1 1 0 -0 -0 -0 -0 -1 0 5 3 3 2 2 3 3 2 3 4 4 6 5 6 6 6
2 2 2 2 1 1 1 1 1 1 1 1 1 2 1 1 1 1 1 2 0 -0 -0 1 -0 -0 -1 2 3 3 1 2 2 3 3 3 4 4 4 5 6 6 7 6
2 2 2 2 1 1 1 1 1 1 1 1 1 1 1 1 1 1 0 1 -0 8 0 -0 -1 4 0 5 0 1 1 2 2 2 3 4 4 5 5 5 6 6 6 6
1 1 1 2 2 1 1 1 1 1 1 1 1 1 1 1 1 1 2 -0 -0 3 -0 -0 5 8 7 -0 -0 -0 2 2 3 3 3 4 4 5 5 5 6 6 6 6
1 1 1 1 1 1 2 1 1 0 0 0 0 0 0 1 0 -0 -0 3 6 4 0 1 4 7 8 -0 0 1 1 2 3 3 4 6 4 5 5 6 6 6 6 7
1 1 1 1 2 1 1 1 1 0 0 0 0 -0 -0 -0 0 -0 -0 -0 5 2 -0 8 7 7 -0 -1 0 1 1 2 3 3 4 4 4 5 5 6 6 6 6 6
1 1 1 1 1 1 1 0 1 1 1 1 1 0 -1 -1 -1 -0 -0 1 -1 2 -1 -1 -2 -1 -1 -0 0 1 2 2 3 3 4 4 4 5 5 6 6 6 6 6
1 5 1 1 -0 0 0 1 1 1 1 1 1 0 1 0 0 1 3 -0 -1 -1 -1 -1 -0 1 -0 -0 1 2 2 3 4 3 3 4 4 4 5 6 6 6 6 6